• In United Kingdom
  • List of Countries
  • For 7 days
  • Water Temperature
  • Satellite Maps
  • Weather Map
  • Weather Widgets
  • user-avatar
    Login

    Hourly Weather Yeghegnadzor

    Today, 18 February, Sunday

    Time Temperature Precipitation Wind Pressure Humidity
    00:00 +5°C° 0.1 mm 2 mps 649 mmHg 75%
    01:00 +5°C° 0.5 mm 2 mps 649 mmHg 77%
    02:00 +5°C° 0.5 mm 2 mps 649 mmHg 79%
    03:00 +5°C° 0 mm 2 mps 648 mmHg 81%
    04:00 +5°C° 0.6 mm 2 mps 648 mmHg 82%
    05:00 +5°C° 0.6 mm 2 mps 648 mmHg 83%
    06:00 +5°C° 0.6 mm 2 mps 647 mmHg 84%
    07:00 +4°C° 1 mm 3 mps 647 mmHg 85%
    08:00 +4°C° 1 mm 3 mps 647 mmHg 86%
    09:00 +5°C° 0 mm 2 mps 647 mmHg 87%
    10:00 +4°C° 1.1 mm 3 mps 647 mmHg 87%
    11:00 +4°C° 1.1 mm 3 mps 647 mmHg 87%
    12:00 +4°C° 1.1 mm 3 mps 646 mmHg 87%
    13:00 +4°C° 0.8 mm 3 mps 646 mmHg 86%
    14:00 +4°C° 0.8 mm 3 mps 645 mmHg 85%
    15:00 +4°C° 0 mm 3 mps 645 mmHg 84%
    16:00 +5°C° 1.2 mm 2 mps 645 mmHg 85%
    17:00 +4°C° 1.2 mm 2 mps 645 mmHg 87%
    18:00 +4°C° 1.2 mm 2 mps 645 mmHg 88%
    19:00 +3°C° 1 mm 2 mps 646 mmHg 89%
    20:00 +3°C° 1 mm 2 mps 646 mmHg 89%
    21:00 +3°C° 1 mm 2 mps 646 mmHg 90%
    22:00 +4°C° 0.7 mm 1 mps 647 mmHg 90%
    23:00 +3°C° 0.7 mm 1 mps 647 mmHg 90%

    Tomorrow, 19 February, Monday

    Time Temperature Precipitation Wind Pressure Humidity
    00:00 +3°C° 0.7 mm 1 mps 647 mmHg 90%
    01:00 +3°C° 0.4 mm 1 mps 647 mmHg 90%
    02:00 +3°C° 0.4 mm 1 mps 647 mmHg 89%
    03:00 +3°C° 0.4 mm 1 mps 647 mmHg 89%
    04:00 +2°C° 0.3 mm 1 mps 648 mmHg 89%
    05:00 +2°C° 0.3 mm 1 mps 648 mmHg 89%
    06:00 +2°C° 0.3 mm 1 mps 648 mmHg 89%
    07:00 +3°C° 0.2 mm 1 mps 648 mmHg 88%
    08:00 +3°C° 0.2 mm 1 mps 649 mmHg 86%
    09:00 +3°C° 0.2 mm 1 mps 649 mmHg 85%
    10:00 +4°C° 0.1 mm 1 mps 649 mmHg 84%
    11:00 +5°C° 0.1 mm 1 mps 649 mmHg 83%
    12:00 +5°C° 0.1 mm 1 mps 649 mmHg 83%
    13:00 +4°C° 0.2 mm 2 mps 649 mmHg 81%
    14:00 +5°C° 0.2 mm 2 mps 649 mmHg 80%
    15:00 +5°C° 0.2 mm 2 mps 649 mmHg 79%
    16:00 +5°C° 0.1 mm 1 mps 649 mmHg 79%
    17:00 +4°C° 0.1 mm 1 mps 649 mmHg 80%
    18:00 +3°C° 0.1 mm 1 mps 649 mmHg 81%
    19:00 +2°C° 0 mm 1 mps 649 mmHg 81%
    20:00 +2°C° 0 mm 1 mps 649 mmHg 81%
    21:00 +1°C° 0 mm 1 mps 649 mmHg 81%
    22:00 +1°C° 0 mm 1 mps 649 mmHg 81%
    23:00 0°C° 0 mm 1 mps 650 mmHg 80%

    Day after tomorrow, 20 February, Tuesday

    Time Temperature Precipitation Wind Pressure Humidity
    00:00 0°C° 0 mm 1 mps 650 mmHg 80%
    01:00 0°C° 0 mm 1 mps 650 mmHg 79%
    02:00 0°C° 0 mm 1 mps 650 mmHg 79%
    03:00 0°C° 0 mm 1 mps 650 mmHg 79%
    04:00 0°C° 0 mm 1 mps 650 mmHg 78%
    05:00 0°C° 0 mm 1 mps 650 mmHg 78%
    06:00 -2°C° 0 mm 2 mps 650 mmHg 78%
    07:00 -1°C° 0 mm 2 mps 651 mmHg 77%
    08:00 +1°C° 0 mm 2 mps 651 mmHg 77%
    09:00 +3°C° 0 mm 2 mps 652 mmHg 76%
    10:00 +4°C° 0 mm 2 mps 651 mmHg 76%
    11:00 +5°C° 0 mm 2 mps 651 mmHg 76%
    12:00 +6°C° 0 mm 2 mps 651 mmHg 76%
    13:00 +6°C° 0 mm 2 mps 651 mmHg 75%
    14:00 +6°C° 0 mm 2 mps 650 mmHg 73%
    15:00 +6°C° 0 mm 2 mps 650 mmHg 71%
    16:00 +5°C° 0 mm 2 mps 650 mmHg 70%
    17:00 +3°C° 0 mm 2 mps 650 mmHg 69%
    18:00 +3°C° 0 mm 1 mps 649 mmHg 67%
    19:00 +2°C° 0 mm 2 mps 650 mmHg 64%
    20:00 +1°C° 0 mm 2 mps 650 mmHg 60%
    21:00 +1°C° 0 mm 2 mps 650 mmHg 57%
    22:00 +1°C° 0 mm 2 mps 650 mmHg 58%
    23:00 -1°C° 0 mm 2 mps 650 mmHg 59%

    21 February, Wednesday

    Time Temperature Precipitation Wind Pressure Humidity
    00:00 -1°C° 0 mm 2 mps 650 mmHg 61%
    01:00 -1°C° 0 mm 2 mps 650 mmHg 64%
    02:00 -1°C° 0 mm 2 mps 650 mmHg 66%
    03:00 -1°C° 0 mm 2 mps 650 mmHg 69%
    04:00 -1°C° 0 mm 2 mps 650 mmHg 70%
    05:00 +1°C° 0 mm 1 mps 650 mmHg 72%
    06:00 +1°C° 0 mm 1 mps 650 mmHg 73%
    07:00 +2°C° 0 mm 1 mps 651 mmHg 73%
    08:00 +3°C° 0 mm 1 mps 651 mmHg 72%
    09:00 +5°C° 0 mm 1 mps 651 mmHg 71%
    10:00 +5°C° 0 mm 1 mps 651 mmHg 72%
    11:00 +6°C° 0 mm 1 mps 651 mmHg 73%
    12:00 +7°C° 0 mm 1 mps 651 mmHg 73%
    13:00 +7°C° 0 mm 1 mps 651 mmHg 72%
    14:00 +7°C° 0 mm 1 mps 650 mmHg 71%
    15:00 +7°C° 0 mm 1 mps 650 mmHg 70%
    16:00 +6°C° 0 mm 1 mps 650 mmHg 71%
    17:00 +5°C° 0 mm 1 mps 650 mmHg 71%
    18:00 +4°C° 0 mm 1 mps 650 mmHg 72%
    19:00 +4°C° 0 mm 1 mps 650 mmHg 71%
    20:00 +3°C° 0 mm 1 mps 650 mmHg 70%
    21:00 +3°C° 0 mm 1 mps 650 mmHg 68%
    22:00 +3°C° 0 mm 1 mps 650 mmHg 68%
    23:00 +3°C° 0 mm 1 mps 650 mmHg 68%

    22 February, Thursday

    Time Temperature Precipitation Wind Pressure Humidity
    00:00 +2°C° 0 mm 1 mps 650 mmHg 68%
    01:00 +2°C° 0 mm 1 mps 650 mmHg 69%
    02:00 +2°C° 0 mm 1 mps 649 mmHg 70%
    03:00 +2°C° 0 mm 1 mps 649 mmHg 71%
    04:00 +2°C° 0 mm 1 mps 649 mmHg 72%
    05:00 +1°C° 0 mm 1 mps 649 mmHg 74%
    06:00 +1°C° 0 mm 1 mps 649 mmHg 75%
    07:00 +2°C° 0 mm 1 mps 650 mmHg 75%
    08:00 +4°C° 0 mm 1 mps 650 mmHg 74%
    09:00 +5°C° 0 mm 1 mps 651 mmHg 73%
    10:00 +6°C° 0 mm 1 mps 650 mmHg 74%
    11:00 +6°C° 0 mm 1 mps 650 mmHg 75%
    12:00 +7°C° 0 mm 1 mps 650 mmHg 76%
    13:00 +7°C° 0 mm 1 mps 649 mmHg 74%
    14:00 +8°C° 0 mm 1 mps 649 mmHg 73%
    15:00 +8°C° 0 mm 1 mps 648 mmHg 72%
    16:00 +7°C° 0 mm 1 mps 648 mmHg 73%
    17:00 +6°C° 0 mm 1 mps 648 mmHg 73%
    18:00 +5°C° 0 mm 1 mps 648 mmHg 73%
    19:00 +4°C° 0 mm 1 mps 648 mmHg 73%
    20:00 +4°C° 0 mm 1 mps 648 mmHg 72%
    21:00 +4°C° 0 mm 1 mps 649 mmHg 72%
    22:00 +4°C° 0 mm 1 mps 649 mmHg 71%
    23:00 +3°C° 0 mm 1 mps 648 mmHg 70%

    23 February, Friday

    Time Temperature Precipitation Wind Pressure Humidity
    00:00 +3°C° 0 mm 1 mps 648 mmHg 69%
    01:00 +3°C° 0 mm 1 mps 648 mmHg 68%
    02:00 +2°C° 0 mm 1 mps 648 mmHg 67%
    03:00 +2°C° 0 mm 1 mps 648 mmHg 67%
    04:00 +2°C° 0 mm 1 mps 648 mmHg 67%
    05:00 +2°C° 0 mm 1 mps 648 mmHg 68%
    06:00 +2°C° 0 mm 1 mps 648 mmHg 69%
    07:00 +3°C° 0 mm 1 mps 649 mmHg 69%
    08:00 +4°C° 0 mm 1 mps 649 mmHg 69%
    09:00 +5°C° 0 mm 1 mps 650 mmHg 68%
    10:00 +6°C° 0 mm 1 mps 650 mmHg 70%
    11:00 +6°C° 0 mm 1 mps 650 mmHg 71%
    12:00 +7°C° 0 mm 1 mps 650 mmHg 73%
    13:00 +7°C° 0.1 mm 1 mps 649 mmHg 72%
    14:00 +7°C° 0.1 mm 1 mps 649 mmHg 71%
    15:00 +8°C° 0.1 mm 1 mps 649 mmHg 71%
    16:00 +7°C° 0.1 mm 1 mps 649 mmHg 72%
    17:00 +6°C° 0.1 mm 1 mps 649 mmHg 74%
    18:00 +6°C° 0.1 mm 1 mps 649 mmHg 76%
    19:00 +5°C° 0.1 mm 1 mps 649 mmHg 76%
    20:00 +5°C° 0.1 mm 1 mps 650 mmHg 77%
    21:00 +5°C° 0.1 mm 1 mps 650 mmHg 78%
    22:00 +4°C° 0 mm 1 mps 650 mmHg 78%
    23:00 +3°C° 0 mm 1 mps 650 mmHg 78%
    Show more